Location: Firdgum
(53.2488°N, 5.5615°E)
Time: 16:38:54
(UTC+00:00)

Cosmos 1484 Rocket - Pass Details

Date: 08 December 2019
Orbit: 505 x 561 km, 97.4° (Epoch: 22 January)

Event Time Altitude Azimuth Distance (km) Brightness Sun altitude
Rises 05:23:00 0° 9° (N) 2,757 6.4 -18.9°
Reaches altitude 10° 05:25:13 10° 4° (N) 1,851 5.4 -18.6°
Maximum altitude 05:29:03 47° 291° (WNW) 739 3.0 -18.1°
Drops below altitude 10° 05:32:50 10° 217° (SW) 1,810 5.2 -17.5°
Sets 05:34:58 0° 211° (SSW) 2,689 6.2 -17.2°
